YO2LC Weather Reports


time (UTC)temp
F
wind
direction
speed
knots
gust
knots
rain 1hr
in
rain 24hr
in
rain mn
in
humidity
%
barometer
mb
20260506093040 76 170 0.0 0.0 0.00 0.00 0.00 46 1014.8
20260506092540 76 170 0.0 0.0 0.00 0.00 0.00 46 1014.8
20260506092041 76 170 0.0 0.0 0.00 0.00 0.00 45 1014.8
20260506091540 76 170 0.0 0.0 0.00 0.00 0.00 46 1014.8
20260506091036 76 170 0.0 0.0 0.00 0.00 0.00 45 1014.8
20260506090536 76 170 0.0 0.0 0.00 0.00 0.00 46 1014.8
20260506090034 76 170 0.0 0.0 0.00 0.00 0.00 45 1014.9
20260506085534 76 170 0.0 0.0 0.00 0.00 0.00 44 1015.0
20260506085033 76 170 0.0 0.0 0.00 0.00 0.00 44 1014.9
20260506084533 76 170 0.0 0.0 0.00 0.00 0.00 44 1014.8
20260506084032 76 170 0.0 0.0 0.00 0.00 0.00 46 1014.9
20260506083532 76 170 0.0 0.0 0.00 0.00 0.00 45 1014.9
20260506083032 75 170 0.0 0.0 0.00 0.00 0.00 46 1014.8
20260506082530 74 170 0.0 0.0 0.00 0.00 0.00 45 1014.8
20260506082033 74 170 0.0 0.0 0.00 0.00 0.00 49 1014.8
20260506081532 75 170 0.0 0.0 0.00 0.00 0.00 49 1014.8
20260506081028 76 170 0.0 0.0 0.00 0.00 0.00 47 1014.9
20260506080526 75 170 0.0 0.0 0.00 0.00 0.00 48 1014.9
20260506073519 72 170 0.0 0.0 0.00 0.00 0.00 58 1015.1
20260506073014 72 170 0.0 0.0 0.00 0.00 0.00 58 1015.0
20260506072512 71 170 0.0 0.0 0.00 0.00 0.00 59 1015.1
20260506072008 70 170 0.0 0.0 0.00 0.00 0.00 60 1015.1
20260506071510 69 170 0.0 0.0 0.00 0.00 0.00 60 1015.1
20260506071008 70 170 0.0 0.0 0.00 0.00 0.00 59 1015.1
20260506070508 70 170 0.0 0.0 0.00 0.00 0.00 58 1015.0
20260506062055 67 170 0.0 0.0 0.00 0.00 0.00 65 1015.0
20260506061554 67 170 0.0 0.0 0.00 0.00 0.00 66 1015.1
20260506061052 66 170 0.0 0.0 0.00 0.00 0.00 66 1015.2
20260506060550 66 170 0.0 0.0 0.00 0.00 0.00 67 1015.2
20260506051036 60 170 0.0 0.0 0.00 0.00 0.00 71 1015.2
20260506050536 59 170 0.0 0.0 0.00 0.00 0.00 72 1015.1
20260506045035 57 170 0.0 0.0 0.00 0.00 0.00 74 1015.0
20260506044537 58 170 0.0 0.0 0.00 0.00 0.00 73 1015.1
20260506044034 58 170 0.0 0.0 0.00 0.00 0.00 73 1015.0
20260506043533 57 170 0.0 0.0 0.00 0.00 0.00 75 1014.9
20260506043030 57 170 0.0 0.0 0.00 0.00 0.00 74 1015.0
20260506042529 57 170 0.0 0.0 0.00 0.00 0.00 74 1014.9
20260506042027 56 170 0.0 0.0 0.00 0.00 0.00 74 1014.9
20260506041527 56 170 0.0 0.0 0.00 0.00 0.00 76 1014.8
20260506041027 55 170 0.0 0.0 0.00 0.00 0.00 76 1014.8
20260506040525 54 170 0.0 0.0 0.00 0.00 0.00 77 1014.8
20260506040027 54 170 0.0 0.0 0.00 0.00 0.00 77 1014.7
20260506035523 54 170 0.0 0.0 0.00 0.00 0.00 78 1014.6
20260506035023 53 170 0.0 0.0 0.00 0.00 0.00 79 1014.6
20260506034522 54 170 0.0 0.0 0.00 0.00 0.00 78 1014.6
20260506034020 53 170 0.0 0.0 0.00 0.00 0.00 79 1014.4
20260506033524 53 170 0.0 0.0 0.00 0.00 0.00 79 1014.3
20260506033020 53 170 0.0 0.0 0.00 0.00 0.00 79 1014.3
20260506032518 53 170 0.0 0.0 0.00 0.00 0.00 78 1014.3
20260506032018 53 170 0.0 0.0 0.00 0.00 0.00 78 1014.3
20260506031526 53 170 0.0 0.0 0.00 0.00 0.00 78 1014.2
20260506031019 53 170 0.0 0.0 0.00 0.00 0.00 78 1014.2
20260506030518 53 170 0.0 0.0 0.00 0.00 0.00 78 1014.3
20260506030015 53 170 0.0 0.0 0.00 0.00 0.00 78 1014.2
20260506025514 53 170 0.0 0.0 0.00 0.00 0.00 78 1014.2
20260506025013 53 170 0.0 0.0 0.00 0.00 0.00 78 1014.1
20260506024527 53 170 0.0 0.0 0.00 0.00 0.00 77 1014.2
20260506024012 53 170 0.0 0.0 0.00 0.00 0.00 77 1014.2
20260506023511 53 170 0.0 0.0 0.00 0.00 0.00 77 1014.2
20260506023011 53 170 0.0 0.0 0.00 0.00 0.00 77 1014.2
20260506022510 53 170 0.0 0.0 0.00 0.00 0.00 77 1014.2
20260506022013 53 170 0.0 0.0 0.00 0.00 0.00 77 1014.1
20260506021510 53 170 0.0 0.0 0.00 0.00 0.00 76 1014.2
20260506021007 53 170 0.0 0.0 0.00 0.00 0.00 76 1014.2
20260506020506 53 170 0.0 0.0 0.00 0.00 0.00 76 1014.2
20260506020006 53 170 0.0 0.0 0.00 0.00 0.00 76 1014.2
20260506015508 53 170 0.0 0.0 0.00 0.00 0.00 76 1014.2
20260506015004 53 170 0.0 0.0 0.00 0.00 0.00 76 1014.3
20260506014507 53 170 0.0 0.0 0.00 0.00 0.00 75 1014.3
20260506014001 53 170 0.0 0.0 0.00 0.00 0.00 75 1014.2
20260506013600 54 170 0.0 0.0 0.00 0.00 0.00 74 1014.3
20260506013059 54 170 0.0 0.0 0.00 0.00 0.00 74 1014.3
20260506012557 55 170 0.0 0.0 0.00 0.00 0.00 73 1014.3
20260506012056 55 170 0.0 0.0 0.00 0.00 0.00 72 1014.3
20260506011619 55 170 0.0 0.0 0.00 0.00 0.00 72 1014.3
20260506011055 55 170 0.0 0.0 0.00 0.00 0.00 72 1014.2
20260506010555 55 170 0.0 0.0 0.00 0.00 0.00 72 1014.4
20260506010052 55 170 0.0 0.0 0.00 0.00 0.00 72 1014.3
20260506005550 55 170 0.0 0.0 0.00 0.00 0.00 72 1014.4
20260506005050 56 170 0.0 0.0 0.00 0.00 0.00 71 1014.4
20260506004601 56 170 0.0 0.0 0.00 0.00 0.00 70 1014.4
20260506004048 57 170 0.0 0.0 0.00 0.00 0.00 69 1014.3
20260506003548 57 170 0.0 0.0 0.00 0.00 0.00 68 1014.4
20260506003048 58 170 0.0 0.0 0.00 0.00 0.00 67 1014.4
20260506002551 58 170 0.0 0.0 0.00 0.00 0.00 66 1014.4
20260506002045 59 170 0.0 0.0 0.00 0.00 0.00 65 1014.4
20260506001545 60 170 0.0 0.0 0.00 0.00 0.00 64 1014.4
20260506001043 60 170 0.0 0.0 0.00 0.00 0.00 62 1014.2
20260506000542 61 170 0.0 0.0 0.00 0.00 0.00 62 1014.2
20260506000110 61 170 0.0 0.0 0.00 0.00 0.00 61 1014.1
20260505235542 61 170 0.0 0.0 0.00 0.00 0.00 61 1014.0
20260505235039 61 170 0.0 0.0 0.00 0.00 0.00 62 1014.0
20260505234545 61 170 0.0 0.0 0.00 0.00 0.00 62 1014.0
20260505234137 60 170 0.0 0.0 0.00 0.00 0.00 63 1013.9
20260505233535 59 170 0.0 0.0 0.00 0.00 0.00 64 1013.9
20260505233035 58 170 0.0 0.0 0.00 0.00 0.00 65 1013.9
20260505232536 58 170 0.0 0.0 0.00 0.00 0.00 65 1013.8
20260505232134 58 170 0.0 0.0 0.00 0.00 0.00 65 1014.0
20260505231533 58 170 0.0 0.0 0.00 0.00 0.00 65 1014.0
20260505231031 58 170 0.0 0.0 0.00 0.00 0.00 66 1013.9
20260505230529 58 170 0.0 0.0 0.00 0.00 0.00 64 1013.7
20260505230049 59 170 0.0 0.0 0.00 0.00 0.00 64 1013.5
20260505225530 60 170 0.0 0.0 0.00 0.00 0.00 62 1013.5
20260505225028 61 170 0.0 0.0 0.00 0.00 0.00 61 1013.4
20260505224536 61 170 0.0 0.0 0.00 0.00 0.00 61 1013.3
20260505224024 61 170 0.0 0.0 0.00 0.00 0.00 61 1013.3
20260505223523 60 170 0.0 0.0 0.00 0.00 0.00 62 1013.4
20260505223025 60 170 0.0 0.0 0.00 0.00 0.00 63 1013.6
20260505222524 60 170 0.0 0.0 0.00 0.00 0.00 63 1013.3
20260505222018 59 170 0.0 0.0 0.00 0.00 0.00 64 1013.1
20260505221518 58 170 0.0 0.0 0.00 0.00 0.00 66 1013.1
20260505221017 57 170 0.0 0.0 0.00 0.00 0.00 67 1013.0
20260505220515 55 170 0.0 0.0 0.00 0.00 0.00 69 1012.7
20260505220013 56 170 0.0 0.0 0.00 0.00 0.00 68 1012.7
20260505215512 56 170 0.0 0.0 0.00 0.00 0.00 68 1012.6
20260505215014 56 170 0.0 0.0 0.00 0.00 0.00 68 1012.7
20260505214514 56 170 0.0 0.0 0.00 0.00 0.00 68 1012.7
20260505214009 56 170 0.0 0.0 0.00 0.00 0.00 67 1012.7
20260505213509 56 170 0.0 0.0 0.00 0.00 0.00 67 1012.7
20260505213007 56 170 0.0 0.0 0.00 0.00 0.00 67 1012.7
20260505212506 56 170 0.0 0.0 0.00 0.00 0.00 67 1012.7
20260505212008 57 170 0.0 0.0 0.00 0.00 0.00 67 1012.7
20260505211503 57 170 0.0 0.0 0.00 0.00 0.00 66 1012.7
20260505211101 57 170 0.0 0.0 0.00 0.00 0.00 66 1012.6
20260505210601 57 170 0.0 0.0 0.00 0.00 0.00 65 1012.7
20260505210059 57 170 0.0 0.0 0.00 0.00 0.00 64 1012.7
20260505205559 58 170 0.0 0.0 0.00 0.00 0.00 64 1012.7
20260505205058 58 170 0.0 0.0 0.00 0.00 0.00 63 1012.7
20260505204602 59 170 0.0 0.0 0.00 0.00 0.00 62 1012.7
20260505204056 58 170 0.0 0.0 0.00 0.00 0.00 62 1012.7
20260505203556 58 170 0.0 0.0 0.00 0.00 0.00 63 1012.7
20260505203102 58 170 0.0 0.0 0.00 0.00 0.00 62 1012.7
20260505202555 58 170 0.0 0.0 0.00 0.00 0.00 63 1012.7
20260505202055 59 170 0.0 0.0 0.00 0.00 0.00 62 1012.7
20260505201552 59 170 0.0 0.0 0.00 0.00 0.00 61 1012.6
20260505201054 60 170 0.0 0.0 0.00 0.00 0.00 59 1012.6
20260505200552 61 170 0.0 0.0 0.00 0.00 0.00 59 1012.6
20260505200051 61 170 0.0 0.0 0.00 0.00 0.00 57 1012.6
20260505195550 61 170 0.0 0.0 0.00 0.00 0.00 56 1012.4
20260505195050 61 170 0.0 0.0 0.00 0.00 0.00 57 1012.3
20260505194605 61 170 0.0 0.0 0.00 0.00 0.00 57 1012.2
20260505194049 60 170 0.0 0.0 0.00 0.00 0.00 58 1012.2
20260505193551 61 170 0.0 0.0 0.00 0.00 0.00 57 1012.3
20260505193048 61 170 0.0 0.0 0.00 0.00 0.00 57 1012.3
20260505192547 62 170 0.0 0.0 0.00 0.00 0.00 55 1012.4
20260505192147 62 170 0.0 0.0 0.00 0.00 0.00 55 1012.4
20260505191555 62 170 0.0 0.0 0.00 0.00 0.00 55 1012.2
20260505191046 61 170 0.0 0.0 0.00 0.00 0.00 55 1012.2
20260505190547 61 170 0.0 0.0 0.00 0.00 0.00 56 1012.2
20260505190048 62 170 0.0 0.0 0.00 0.00 0.00 55 1012.1
20260505185545 62 170 0.0 0.0 0.00 0.00 0.00 55 1012.1
20260505185043 62 170 0.0 0.0 0.00 0.00 0.00 54 1012.1
20260505184543 63 170 0.0 0.0 0.00 0.00 0.00 54 1012.1
20260505184043 63 170 0.0 0.0 0.00 0.00 0.00 54 1012.1
20260505183542 63 170 0.0 0.0 0.00 0.00 0.00 54 1012.0
20260505183041 63 170 0.0 0.0 0.00 0.00 0.00 53 1012.0
20260505182540 64 170 0.0 0.0 0.00 0.00 0.00 53 1011.9
20260505182140 64 170 0.0 0.0 0.00 0.00 0.00 53 1011.9
20260505181539 64 170 0.0 0.0 0.00 0.00 0.00 53 1011.9
20260505181037 64 170 0.0 0.0 0.00 0.00 0.00 53 1011.9
20260505180537 65 170 0.0 0.0 0.00 0.00 0.00 53 1011.9
20260505180045 65 170 0.0 0.0 0.00 0.00 0.00 53 1011.9
20260505175536 66 170 0.0 0.0 0.00 0.00 0.00 53 1011.8
20260505175034 66 170 0.0 0.0 0.00 0.00 0.00 53 1011.9
20260505174534 67 170 0.0 0.0 0.00 0.00 0.00 53 1011.9
20260505174034 68 170 0.0 0.0 0.00 0.00 0.00 53 1011.9
20260505173636 68 170 0.0 0.0 0.00 0.00 0.00 53 1011.8
20260505173034 69 170 0.0 0.0 0.00 0.00 0.00 53 1011.8
20260505172533 70 170 0.0 0.0 0.00 0.00 0.00 52 1011.8
20260505172032 71 170 0.0 0.0 0.00 0.00 0.00 51 1011.9
20260505171531 72 170 0.0 0.0 0.00 0.00 0.00 50 1011.8
20260505171031 74 170 0.0 0.0 0.00 0.00 0.00 50 1011.9
20260505170530 75 170 0.0 0.0 0.00 0.00 0.00 50 1011.9
20260505170030 75 170 0.0 0.0 0.00 0.00 0.00 50 1011.9
20260505165529 76 170 0.0 0.0 0.00 0.00 0.00 48 1011.9
20260505165028 77 170 0.0 0.0 0.00 0.00 0.00 48 1011.8
20260505164528 79 170 0.0 0.0 0.00 0.00 0.00 47 1011.8
20260505164027 80 170 0.0 0.0 0.00 0.00 0.00 45 1011.8
20260505163525 81 170 0.0 0.0 0.00 0.00 0.00 44 1011.9
20260505163025 83 170 0.0 0.0 0.00 0.00 0.00 41 1012.0
20260505162524 83 170 0.0 0.0 0.00 0.00 0.00 38 1012.0
20260505162126 83 170 0.0 0.0 0.00 0.00 0.00 35 1012.0
20260505161525 83 170 0.0 0.0 0.00 0.00 0.00 34 1012.0
20260505161020 83 170 0.0 0.0 0.00 0.00 0.00 33 1012.0
20260505160520 83 170 0.0 0.0 0.00 0.00 0.00 33 1012.1
20260505153014 83 170 0.0 0.0 0.00 0.00 0.00 29 1012.3
20260505152513 83 170 0.0 0.0 0.00 0.00 0.00 28 1012.3
20260505152015 84 170 0.0 0.0 0.00 0.00 0.00 30 1012.3
20260505151514 84 170 0.0 0.0 0.00 0.00 0.00 29 1012.3
20260505151011 84 170 0.0 0.0 0.00 0.00 0.00 27 1012.4
20260505150511 84 170 0.0 0.0 0.00 0.00 0.00 27 1012.4
20260505140556 85 170 0.0 0.0 0.00 0.00 0.00 25 1012.9
20260505125033 85 170 0.0 0.0 0.00 0.00 0.00 27 1013.5
20260505124542 84 170 0.0 0.0 0.00 0.00 0.00 27 1013.6
20260505124031 84 170 0.0 0.0 0.00 0.00 0.00 27 1013.5
20260505123530 85 170 0.0 0.0 0.00 0.00 0.00 26 1013.7
20260505123028 84 170 0.0 0.0 0.00 0.00 0.00 27 1013.8
20260505122529 84 170 0.0 0.0 0.00 0.00 0.00 27 1013.7
20260505122026 84 170 0.0 0.0 0.00 0.00 0.00 27 1013.9
20260505121537 84 170 0.0 0.0 0.00 0.00 0.00 27 1014.0
20260505121024 83 170 0.0 0.0 0.00 0.00 0.00 28 1013.8
20260505120522 83 170 0.0 0.0 0.00 0.00 0.00 27 1014.1
20260505120024 84 170 0.0 0.0 0.00 0.00 0.00 27 1014.2
20260505115519 83 170 0.0 0.0 0.00 0.00 0.00 30 1014.2
20260505115019 83 170 0.0 0.0 0.00 0.00 0.00 30 1014.3
20260505114518 83 170 0.0 0.0 0.00 0.00 0.00 28 1014.4
20260505114018 83 170 0.0 0.0 0.00 0.00 0.00 29 1014.4
20260505113515 83 170 0.0 0.0 0.00 0.00 0.00 28 1014.5
20260505113015 83 170 0.0 0.0 0.00 0.00 0.00 28 1014.6
20260505112513 83 170 0.0 0.0 0.00 0.00 0.00 29 1014.7
20260505112012 83 170 0.0 0.0 0.00 0.00 0.00 30 1014.7
20260505111510 82 170 0.0 0.0 0.00 0.00 0.00 31 1014.8
20260505111009 82 170 0.0 0.0 0.00 0.00 0.00 31 1014.8
20260505110508 82 170 0.0 0.0 0.00 0.00 0.00 32 1014.8
20260505102056 80 170 0.0 0.0 0.00 0.00 0.00 36 1015.3
20260505101558 80 170 0.0 0.0 0.00 0.00 0.00 35 1015.3
20260505101053 80 170 0.0 0.0 0.00 0.00 0.00 35 1015.4
20260505100554 80 170 0.0 0.0 0.00 0.00 0.00 38 1015.4
20260505100128 80 170 0.0 0.0 0.00 0.00 0.00 40 1015.5
20260505095553 79 170 0.0 0.0 0.00 0.00 0.00 38 1015.5
20260505095050 79 170 0.0 0.0 0.00 0.00 0.00 40 1015.5
20260505094547 79 170 0.0 0.0 0.00 0.00 0.00 39 1015.5
20260505094046 79 170 0.0 0.0 0.00 0.00 0.00 38 1015.7
20260505093546 79 170 0.0 0.0 0.00 0.00 0.00 39 1015.7